sat.trackr.live / text

‹ back to catalog

STARLINK-35453

NORAD 65878 · 2025-223AA

PAYLOAD ACTIVE UNKNOWN

§ Identity

Operator
Country
US
Launch date
2025-10-03
Launch site
AFWTR
Launch vehicle
Mass (kg)
RCS (m²)

Purposes: comms

External: N2YO · Heavens-Above · Gunter

§ Orbital elements

Epoch: 2026-05-24T19:22:48.477792Z

Period
93.85 min
Inclination
53.1597°
Eccentricity
0.0000870
Mean motion
15.34402128 rev/d
Perigee alt
462.1 km
Apogee alt
463.3 km
Semi-major
6,840.8 km
B*
6.6412e-4
RAAN
300.3282°
Arg perigee
81.4237°
Mean anomaly
278.6865°
Rev number
3,586

§ Raw data

STARLINK-354531 65878U 25223AA  26144.80750553  .00022130  00000+0  66412-3 0  99972 65878  53.1597 300.3282 0000870  81.4237 278.6865 15.34402128 35868

JSON: /api/v1/satellites/65878 · /tle

For live sub-satellite position, see the globe view (requires WebGL).

§ Visibility from observer

Set your observer location to see the next 7 days of passes ≥ 10°. The values pass through the URL so the page stays shareable.

No JS? Fill the form by hand. The geolocation button needs JavaScript.